STARLINK-1493, 45759

Orbit data source: Space-Track

STARLINK-1493, 45759 is a payload satellite owned by SpaceX/Seattle (US) in LEO that was launched on Sat, 13 Jun 2020 UTC via an FALCON 9 launch vehicle from the Air Force Eastern Test Range (AFETR). Payload-class satellites include a variety of spacecraft equipped with specific instruments for various scientific and technological missions. These include communications satellites like Starlink; space stations such as the ISS; scientific satellites like the Hubble; Earth observation satellites from companies like Planet Labs, Umbra, and HawkEye 360; GPS; miniature CubeSats for education and research; and military/defense satellites.

Loading next visibility...
Identifier
45759, 2020-038AF
Orbit
LEO
Country
Flag of USUS
Related business
Manufacturer
SpaceX/Seattle
Mission
Operational Commercial Communications
Bus & Motor
STARLINK, Unknown motor
Mass
260 kg wet, ~248 kg dry
Launch date (UTC)
2020-06-13 (6 years ago)
Launch vehicle
FALCON 9
Launch site
Air Force Eastern Test Range (AFETR)
Object type
Payload
Rocket body
Debris
Shape & HBR
Box + 1 Pan, 10.1 m
Radar Cross Section
13.562 m², Large (>1 m²)

Expand to show TLE details & history
Last TLE update: 14 hours ago

TLE from 14 hours ago
0 STARLINK-1493
1 45759U 20038AF  26033.66670139  .01526034  00000-0  35226-1 0  9995
2 45759  53.0559  11.3417 0001367 108.9732 331.1783 15.39325146  5340
Epoch: 2026-02-02T16:00Z
TLE epoch observation values (Epoch: 2026-02-02T16:00:03.000Z)
Latitude
52.09771°
Longitude
72.32986°
Altitude
453.57 km
Speed
7.647 km/s
True Right ascension
05h 40m 48s
True Declination
51° 55' 24"
Sunlit
Object was in full shadow at epoch
Visualization orbit readout
Latitude
Unknown
Longitude
Unknown
Altitude
Unknown
Speed
Unknown
Apparent Right ascension
Unknown
Apparent Declination
Unknown
Sunlit
N/A
Visualization observer readout
Local Sidereal Time
07:47:28
Azimuth
Unknown
Elevation
Unknown
Doppler factor
Unknown
Orbital elements
Apogee altitude
449.311 km
Perigee altitude
447.445 km
Semi-major axis
6,826.515 km
Eccentricity
0.00014
Inclination
53.0559°
RAAN
11.3417°
Arg. of periapsis
108.9732°
True anomaly
331.17075°
Mean anomaly
331.1783°
Eccentric anomaly
331.17452°
Mean motion
3.84808 °/min
Orbital period
93.55 mins
BSTAR
0.035226
Loading maneuver chart data...
Computing Atmospheric mass density...
Loading historical data...
Loading historical data...
Loading historical data...
Loading historical data...
Loading historical data...
Loading historical data...
Loading historical data...

Documentation

Showing up to 5 results
|